Location: *
(55.5817°S, 142.4781°W)
Time: 07:25:17
(UTC+00:00)

Cosmos 1470 Rocket - Pass Details

Date: 29 April 2025
Orbit: 597 x 628 km, 82.5° (Epoch: 19 May)

Event Time Altitude Azimuth Distance (km) Brightness Sun altitude
Exits shadow 15:02:48 27° 280° (W) 1,198 4.4 -15.5°
Maximum altitude 15:04:07 32° 247° (WSW) 1,063 4.2 -15.3°
Drops below altitude 10° 15:08:06 10° 183° (S) 1,992 6.1 -14.8°
Sets 15:10:33 0° 172° (S) 2,908 7.1 -14.4°
